AirNav   ProFlight Series 2 Aviation Headset
 
 1230 users online  

57FL Lake Keystone Seaplane Base
Odessa, Florida, USA

GOING TO ODESSA?


FAA INFORMATION EFFECTIVE 16 JULY 2020

Location

FAA Identifier: 57FL
Lat/Long: 28-08-09.4000N 082-35-38.3100W
28-08.156667N 082-35.638500W
28.1359444,-82.5939750
(estimated)
Elevation: 42 ft. / 13 m (estimated)
From city: 3 miles SSW of ODESSA, FL
Time zone: UTC -4 (UTC -5 during Standard Time)
Zip code: 33556

Seaplane Base Operations

Seaplane Base use: Private use. Permission required prior to landing
Activation date: 09/2014
Control tower: no
ARTCC: MIAMI CENTER
FSS: SAINT PETERSBURG FLIGHT SERVICE STATION
Attendance: UNATNDD
Wind indicator: yes
Segmented circle: no

Seaplane Base Communications

WX ASOS at TPA (10 nm S): PHONE 813-873-7228
WX AWOS-3P at CLW (13 nm SW): 119.225 (727-449-2184)
WX ASOS at PIE (14 nm S): PHONE 727-531-3456
WX AWOS-3 at VDF (15 nm SE): 121.125 (813-630-0924)
WX AWOS-3 at TPF (15 nm SE): 118.925 (813-251-6824)

Nearby radio navigation aids

VOR radial/distance  VOR name  Freq  Var
PIEr024/14.5ST PETERSBURG VORTAC116.4005W
LALr285/32.0LAKELAND VORTAC116.0001E

 
NDB name  Hdg/Dist  Freq  Var  ID
COSME315/4.736805WTP - .--.
CAPOK040/10.336005WPI .--. ..

Seaplane Base Services

Runway Information

Runway 14W/32W

Dimensions: 2500 x 200 ft. / 762 x 61 m
Surface: water
RUNWAY 14W  RUNWAY 32W
Traffic pattern: leftleft

Seaplane Base Ownership and Management from official FAA records

Ownership: Privately-owned
Owner: KEYSTONE SEAPLANE, LLC
8615 VIVIAN BASS WAY
ODESSA, FL 33556
Phone (813) 597-8500
Manager: KEN LEONARD SR
10523 LAKE WILLIAMS
ODESSA, FL 33556
Phone 813-416-7744

Seaplane Base Operational Statistics

Aircraft based on the field: 1
Single engine airplanes: 1
    

Additional Remarks

FOR CD CTC TAMPA APCH AT 813-878-2528

Instrument Procedures

There are no published instrument procedures at 57FL.

Some nearby airports with instrument procedures:

KTPA - Tampa International Airport (10 nm S)
KCLW - Clearwater Air Park (13 nm SW)
KPIE - St Pete-Clearwater International Airport (14 nm S)
KVDF - Tampa Executive Airport (15 nm SE)
KTPF - Peter O Knight Airport (15 nm SE)
KMCF - MacDill Air Force Base (18 nm S)
 
Loc | Ops | Rwys | IFR | FBO | Links
Com | Nav | Svcs | Stats | Notes


 
Aerial photo
No photo
 
Airport distance calculator
Flying to Lake Keystone Seaplane Base? Find the distance to fly.

From to 57FL

Sunrise and sunset
Times for 05-Aug-2020
 Local
(UTC-4)
 Zulu
(UTC)
Morning civil twilight06:3110:31
Sunrise06:5610:56
Sunset20:1600:16
Evening civil twilight20:4100:41

Current date and time
Zulu (UTC)  05-Aug-2020 22:30:30
Local (UTC-4)  05-Aug-2020 18:30:30
 
METAR
KTPA 
11nm S 
052153Z 21005KT 10SM FEW040 SCT110 BKN220 31/24 A2998 RMK AO2 LTG DSNT SE TSE21 SLP150 CB DSNT SE TCU DSNT SW AND NW T03110244
KCLW 
13nm SW 
052215Z AUTO 10003KT 10SM CLR 31/22 A2996 RMK AO2
KPIE 
14nm S 
052153Z 10003KT 10SM CLR 32/24 A2997 RMK AO2 SLP147 T03220244
KVDF 
15nm SE 
052215Z AUTO 03003KT 10SM CLR 28/25 A2999 RMK AO2
KTPF 
15nm SE 
052215Z AUTO 19004KT 10SM SCT100 SCT120 32/28 A2997 RMK AO2
KMCF 
18nm S 
052156Z AUTO 19003KT 10SM FEW220 32/25 A2997 RMK AO2 LTG DSNT SE SLP152 T03180246 FZRANO $
KBKV 
21nm N 
052153Z VRB03KT 10SM FEW075 23/21 A3000 RMK AO2 LTG DSNT N AND NE RAE43 TSE26 SLP157 P0007 T02280211
TAF
KTPA 
11nm S 
051722Z 0518/0624 22006KT P6SM VCTS SCT040CB SCT250 FM052200 28009KT P6SM VCSH SCT040 SCT250 FM060200 VRB04KT P6SM FEW040 SCT250
KPIE 
14nm S 
051935Z 0520/0618 10008KT P6SM VCTS SCT040CB SCT250 FM052100 28009KT P6SM VCSH SCT040 SCT250 FM060200 VRB04KT P6SM FEW040 SCT250
KMCF 
18nm S 
051700Z 0517/0623 VRB06KT 9999 SCT035 BKN200 QNH2995INS TEMPO 0517/0605 VRB10G15KT 9000 -SHRA VCTS BKN035CB BECMG 0605/0606 VRB06KT 9999 SCT030 QNH2999INS TX32/0518Z TN26/0608Z
NOTAMs
Click for the latest NOTAMs
NOTAMs are issued by the DoD/FAA and will open in a separate window not controlled by AirNav.

 

 
 

Would you like to see your business listed on this page?

 If your business provides an interesting product or service to pilots, flight crews, aircraft, or users of the Lake Keystone Seaplane Base, you should consider listing it here.  To start the listing process, click on the button below
 
Add a business
 

Other Pages about Lake Keystone Seaplane Base

Update a link
 
Copyright © AirNav, LLC. All rights reserved. Privacy Policy  Contact